When you browse on this site, cookies collect data to enhance your experience and personalize the content and advertising you see.
Visit our Privacy Policy to learn more. By continuing to use the site, you agree to this use of cookies and data.
  • In Latvia
  • List of Countries
  • For 7 days
  • Water Temperature
  • Satellite Maps
  • Weather Map
  • Weather Widgets
  • user-avatar
    Login

    Hourly Weather Shofirkon

    Today, 21 February, Thursday

    Time Temperature Precipitation Wind Pressure Humidity
    00:00 -1°C° 0 mm 2 mps 750 mmHg 56%
    01:00 0°C° 0 mm 1 mps 750 mmHg 58%
    02:00 0°C° 0 mm 1 mps 750 mmHg 58%
    03:00 0°C° 0 mm 1 mps 751 mmHg 58%
    04:00 0°C° 0 mm 1 mps 751 mmHg 58%
    05:00 0°C° 0 mm 1 mps 751 mmHg 57%
    06:00 -1°C° 0 mm 0 mps 751 mmHg 56%
    07:00 -1°C° 0 mm 0 mps 751 mmHg 55%
    08:00 0°C° 0 mm 0 mps 752 mmHg 51%
    09:00 +2°C° 0 mm 1 mps 752 mmHg 47%
    10:00 +2°C° 0 mm 1 mps 752 mmHg 43%
    11:00 +3°C° 0 mm 1 mps 752 mmHg 40%
    12:00 +4°C° 0 mm 1 mps 751 mmHg 37%
    13:00 +5°C° 0 mm 1 mps 751 mmHg 34%
    14:00 +5°C° 0 mm 2 mps 750 mmHg 32%
    15:00 +5°C° 0 mm 2 mps 750 mmHg 31%
    16:00 +6°C° 0 mm 2 mps 750 mmHg 29%
    17:00 +5°C° 0 mm 2 mps 750 mmHg 32%
    18:00 +5°C° 0 mm 2 mps 750 mmHg 34%
    19:00 +4°C° 0 mm 2 mps 750 mmHg 37%
    20:00 +4°C° 0 mm 2 mps 749 mmHg 39%
    21:00 +4°C° 0 mm 2 mps 749 mmHg 41%
    22:00 +3°C° 0 mm 3 mps 749 mmHg 43%
    23:00 +2°C° 0 mm 3 mps 748 mmHg 47%

    Tomorrow, 22 February, Friday

    Time Temperature Precipitation Wind Pressure Humidity
    00:00 +2°C° 0 mm 3 mps 748 mmHg 52%
    01:00 +2°C° 0 mm 3 mps 748 mmHg 57%
    02:00 +1°C° 0 mm 3 mps 747 mmHg 58%
    03:00 +1°C° 0 mm 3 mps 747 mmHg 59%
    04:00 +1°C° 0 mm 3 mps 746 mmHg 60%
    05:00 +1°C° 0 mm 3 mps 746 mmHg 57%
    06:00 +1°C° 0 mm 3 mps 746 mmHg 55%
    07:00 +1°C° 0 mm 3 mps 746 mmHg 52%
    08:00 +4°C° 0 mm 3 mps 746 mmHg 45%
    09:00 +7°C° 0 mm 3 mps 745 mmHg 38%
    10:00 +9°C° 0 mm 3 mps 745 mmHg 32%
    11:00 +10°C° 0 mm 3 mps 744 mmHg 29%
    12:00 +12°C° 0 mm 4 mps 744 mmHg 26%
    13:00 +13°C° 0 mm 4 mps 743 mmHg 23%
    14:00 +14°C° 0 mm 4 mps 743 mmHg 22%
    15:00 +14°C° 0 mm 4 mps 742 mmHg 22%
    16:00 +14°C° 0 mm 4 mps 742 mmHg 22%
    17:00 +13°C° 0 mm 4 mps 742 mmHg 25%
    18:00 +12°C° 0 mm 3 mps 742 mmHg 28%
    19:00 +11°C° 0 mm 3 mps 743 mmHg 30%
    20:00 +10°C° 0 mm 4 mps 743 mmHg 32%
    21:00 +10°C° 0 mm 4 mps 743 mmHg 34%
    22:00 +8°C° 0 mm 5 mps 743 mmHg 35%
    23:00 +8°C° 0 mm 5 mps 743 mmHg 37%

    Day after tomorrow, 23 February, Saturday

    Time Temperature Precipitation Wind Pressure Humidity
    00:00 +8°C° 0 mm 4 mps 743 mmHg 39%
    01:00 +7°C° 0 mm 4 mps 743 mmHg 41%
    02:00 +7°C° 0 mm 4 mps 743 mmHg 42%
    03:00 +6°C° 0 mm 4 mps 743 mmHg 44%
    04:00 +6°C° 0 mm 5 mps 743 mmHg 45%
    05:00 +6°C° 0 mm 4 mps 743 mmHg 47%
    06:00 +5°C° 0 mm 4 mps 743 mmHg 49%
    07:00 +5°C° 0 mm 4 mps 743 mmHg 51%
    08:00 +6°C° 0 mm 4 mps 744 mmHg 47%
    09:00 +8°C° 0 mm 4 mps 744 mmHg 42%
    10:00 +10°C° 0 mm 4 mps 744 mmHg 38%
    11:00 +11°C° 0 mm 4 mps 744 mmHg 34%
    12:00 +13°C° 0 mm 4 mps 743 mmHg 30%
    13:00 +14°C° 0 mm 4 mps 743 mmHg 26%
    14:00 +14°C° 0 mm 4 mps 743 mmHg 26%
    15:00 +14°C° 0 mm 4 mps 743 mmHg 26%
    16:00 +14°C° 0 mm 4 mps 743 mmHg 26%
    17:00 +13°C° 0 mm 3 mps 743 mmHg 30%
    18:00 +11°C° 0 mm 3 mps 744 mmHg 34%
    19:00 +10°C° 0 mm 2 mps 744 mmHg 38%
    20:00 +10°C° 0 mm 2 mps 744 mmHg 39%
    21:00 +9°C° 0 mm 2 mps 744 mmHg 41%
    22:00 +8°C° 0 mm 2 mps 744 mmHg 43%
    23:00 +8°C° 0 mm 2 mps 744 mmHg 45%

    24 February, Sunday

    Time Temperature Precipitation Wind Pressure Humidity
    00:00 +7°C° 0 mm 2 mps 744 mmHg 46%
    01:00 +7°C° 0 mm 2 mps 744 mmHg 48%
    02:00 +6°C° 0 mm 2 mps 744 mmHg 50%
    03:00 +7°C° 0 mm 1 mps 744 mmHg 51%
    04:00 +6°C° 0 mm 1 mps 744 mmHg 53%
    05:00 +6°C° 0 mm 1 mps 744 mmHg 53%
    06:00 +6°C° 0 mm 1 mps 744 mmHg 54%
    07:00 +6°C° 0 mm 1 mps 744 mmHg 55%
    08:00 +8°C° 0 mm 1 mps 745 mmHg 48%
    09:00 +10°C° 0 mm 1 mps 745 mmHg 42%
    10:00 +11°C° 0 mm 1 mps 745 mmHg 35%
    11:00 +12°C° 0 mm 2 mps 745 mmHg 32%
    12:00 +13°C° 0 mm 2 mps 745 mmHg 29%
    13:00 +14°C° 0 mm 2 mps 744 mmHg 26%
    14:00 +13°C° 0 mm 3 mps 744 mmHg 25%
    15:00 +14°C° 0 mm 3 mps 744 mmHg 25%
    16:00 +14°C° 0 mm 4 mps 744 mmHg 24%
    17:00 +13°C° 0 mm 3 mps 745 mmHg 27%
    18:00 +12°C° 0 mm 3 mps 745 mmHg 30%
    19:00 +11°C° 0 mm 3 mps 745 mmHg 33%
    20:00 +10°C° 0 mm 3 mps 745 mmHg 36%
    21:00 +9°C° 0 mm 3 mps 746 mmHg 38%
    22:00 +9°C° 0 mm 3 mps 746 mmHg 40%
    23:00 +8°C° 0 mm 3 mps 746 mmHg 42%

    25 February, Monday

    Time Temperature Precipitation Wind Pressure Humidity
    00:00 +8°C° 0 mm 3 mps 745 mmHg 43%
    01:00 +7°C° 0 mm 2 mps 745 mmHg 45%
    02:00 +7°C° 0 mm 3 mps 745 mmHg 45%
    03:00 +7°C° 0 mm 3 mps 745 mmHg 46%
    04:00 +5°C° 0 mm 3 mps 745 mmHg 46%
    05:00 +5°C° 0 mm 3 mps 746 mmHg 47%
    06:00 +6°C° 0 mm 2 mps 746 mmHg 47%
    07:00 +6°C° 0 mm 2 mps 746 mmHg 47%
    08:00 +7°C° 0 mm 2 mps 746 mmHg 42%
    09:00 +9°C° 0 mm 2 mps 746 mmHg 37%
    10:00 +12°C° 0 mm 2 mps 747 mmHg 32%
    11:00 +12°C° 0 mm 2 mps 746 mmHg 31%
    12:00 +13°C° 0 mm 2 mps 746 mmHg 29%
    13:00 +14°C° 0 mm 2 mps 746 mmHg 28%
    14:00 +13°C° 0 mm 3 mps 745 mmHg 27%
    15:00 +13°C° 0 mm 3 mps 745 mmHg 27%
    16:00 +13°C° 0 mm 3 mps 745 mmHg 27%
    17:00 +12°C° 0 mm 3 mps 745 mmHg 31%
    18:00 +11°C° 0 mm 3 mps 745 mmHg 34%
    19:00 +10°C° 0 mm 3 mps 746 mmHg 37%
    20:00 +10°C° 0 mm 3 mps 745 mmHg 38%
    21:00 +9°C° 0 mm 3 mps 745 mmHg 40%
    22:00 +8°C° 0 mm 3 mps 745 mmHg 41%
    23:00 +8°C° 0 mm 3 mps 745 mmHg 42%

    26 February, Tuesday

    Time Temperature Precipitation Wind Pressure Humidity
    00:00 +7°C° 0 mm 2 mps 745 mmHg 43%
    01:00 +7°C° 0 mm 2 mps 744 mmHg 44%
    02:00 +7°C° 0 mm 2 mps 744 mmHg 45%
    03:00 +6°C° 0 mm 2 mps 744 mmHg 46%
    04:00 +7°C° 0 mm 1 mps 744 mmHg 47%
    05:00 +6°C° 0 mm 2 mps 744 mmHg 47%
    06:00 +6°C° 0 mm 2 mps 744 mmHg 46%
    07:00 +6°C° 0 mm 2 mps 744 mmHg 46%
    08:00 +8°C° 0 mm 2 mps 743 mmHg 41%
    09:00 +10°C° 0 mm 3 mps 743 mmHg 36%
    10:00 +12°C° 0 mm 4 mps 743 mmHg 31%
    11:00 +13°C° 0 mm 4 mps 742 mmHg 29%
    12:00 +14°C° 0 mm 4 mps 741 mmHg 26%
    13:00 +15°C° 0 mm 4 mps 741 mmHg 23%
    14:00 +15°C° 0 mm 4 mps 740 mmHg 23%
    15:00 +15°C° 0 mm 4 mps 739 mmHg 22%
    16:00 +15°C° 0 mm 4 mps 739 mmHg 22%
    17:00 +14°C° 0 mm 4 mps 738 mmHg 24%
    18:00 +13°C° 0 mm 4 mps 738 mmHg 26%
    19:00 +12°C° 0 mm 4 mps 737 mmHg 29%
    20:00 +12°C° 0 mm 4 mps 737 mmHg 31%
    21:00 +11°C° 0 mm 4 mps 736 mmHg 34%
    22:00 +9°C° 0 mm 5 mps 736 mmHg 36%
    23:00 +9°C° 0 mm 5 mps 735 mmHg 38%
    Show more